sat.trackr.live / text

‹ back to catalog

STARLINK-5017

NORAD 53915 · 2022-119AF

PAYLOAD ACTIVE UNKNOWN

§ Identity

Operator
Country
US
Launch date
2022-09-24
Launch site
AFETR
Launch vehicle
Mass (kg)
RCS (m²)

Purposes: comms

External: N2YO · Heavens-Above · Gunter

§ Orbital elements

Epoch: 2026-06-15T12:03:51.238368Z

Period
87.69 min
Inclination
53.2024°
Eccentricity
0.0009176
Mean motion
16.42109353 rev/d
Perigee alt
154.2 km
Apogee alt
166.2 km
Semi-major
6,538.3 km
B*
3.0400e-4
RAAN
199.0642°
Arg perigee
226.8380°
Mean anomaly
133.1903°
Rev number
20,709

§ Raw data

STARLINK-50171 53915U 22119AF  26166.50267637  .05958936  12321-4  30400-3 0  99932 53915  53.2024 199.0642 0009176 226.8380 133.1903 16.42109353207096

JSON: /api/v1/satellites/53915 · /tle

For live sub-satellite position, see the globe view (requires WebGL).

§ Visibility from observer

Set your observer location to see the next 7 days of passes ≥ 10°. The values pass through the URL so the page stays shareable.

No JS? Fill the form by hand. The geolocation button needs JavaScript.